Location: Unnamed
(42.1164°N, 2.7652°E)
Time: 07:48:48
(UTC+02:00)

X-37B - Pass Details

Date: 05 August 2021
Orbit: 381 x 393 km, 45.0° (Epoch: 29 August)

Event Time Altitude Azimuth Distance (km) Brightness Sun altitude
Exits shadow 04:52:46 69° 267° (W) 410 0.4 -18.1°
Maximum altitude 04:53:05 84° 341° (NNW) 386 0.5 -18.1°
Drops below altitude 10° 04:56:13 10° 71° (ENE) 1,398 4.4 -17.7°
Sets 04:58:18 0° 72° (ENE) 2,253 5.6 -17.4°
